Location: Bayshore Village Mobile Home Park
(26.6945°N, 81.8642°W)
Time: 01:32:18
(UTC+00:00)

Hubble Space Telescope - Pass Details

Date: 31 October 2021
Orbit: 534 x 538 km, 28.5° (Epoch: 30 November)

Event Time Altitude Azimuth Distance (km) Brightness Sun altitude
Rises 00:40:45 0° 269° (W) 2,663 5.7 -26.1°
Reaches altitude 10° 00:43:01 10° 272° (W) 1,773 4.4 -26.6°
Enters shadow 00:45:49 41° 285° (WNW) 778 1.9 -27.2°
